"2009-10-01 00:00:00",1287646,21.11,298.9,1.585,0.516,15.94,106.4211,15.71,16.69,27.77,0,110.6,13.28,16.52,260.9
"2009-10-01 00:00:30",1287647,20.98,299.2,2.202,1.128,16.04,106.4211,15.71,16.68,27.13,0,110.6,13.28,16.52,261.2
"2009-10-01 00:01:00",1287648,20.15,299.6,1.815,0.679,15.96,106.4211,15.71,16.69,27.48,0,110.6,13.28,16.52,261.6
"2009-10-01 00:01:30",1287649,20.99,301.2,1.271,0.76,16.23,106.4211,15.71,16.7,26.36,0,110.6,13.28,16.52,263.2
"2009-10-01 00:02:00",1287650,20.95,299.3,1.498,0.474,16.16,106.4222,15.71,16.7,26.13,0,110.6,13.28,16.52,261.3
"2009-10-01 00:02:30",1287651,19.27,301.3,3.047,0.954,16.05,106.434,15.74,16.7,26.07,0,110.6,13.29,16.55,263.3
"2009-10-01 00:03:00",1287652,18.11,303.4,2.562,0.775,15.8,106.4507,15.79,16.72,27.27,0,110.6,13.29,16.59,265.4
"2009-10-01 00:03:30",1287653,19.49,300.7,2.564,1.2,16.11,106.4546,15.8,16.74,27.02,0,110.6,13.29,16.60,262.7
"2009-10-01 00:04:00",1287654,19.99,301.2,1.562,0.821,16.04,106.4549,15.8,16.74,26.58,0,110.6,13.29,16.61,263.2
"2009-10-01 00:04:30",1287655,19.89,299.6,2.504,1.081,15.98,106.4549,15.8,16.75,26.65,0,110.6,13.29,16.61,261.6
"2009-10-01 00:05:00",1287656,21.32,300.3,2.875,1.245,15.98,106.4549,15.8,16.77,26.72,0,110.6,13.29,16.61,262.3
"2009-10-01 00:05:30",1287657,22.23,298.8,2.006,1.164,16.08,106.4552,15.8,16.78,26.08,0,110.6,13.29,16.61,260.8
"2009-10-01 00:06:00",1287658,21.73,300.2,1.853,0.871,16.14,106.4549,15.8,16.78,26,0,110.6,13.29,16.61,262.2
"2009-10-01 00:06:30",1287659,21.38,299.5,2.347,0.783,16.01,106.4549,15.8,16.79,26.37,0,110.6,13.29,16.61,261.5
"2009-10-01 00:07:00",1287660,21.61,298.2,2.343,1.006,16.16,106.4552,15.8,16.79,26.03,0,110.6,13.29,16.61,260.2
"2009-10-01 00:07:30",1287661,22.28,299.4,2.336,0.955,16.13,106.4549,15.8,16.79,25.98,0,110.6,13.29,16.61,261.4
"2009-10-01 00:08:00",1287662,22.05,298.4,1.776,1.015,16.17,106.4552,15.8,16.78,26,0,110.6,13.29,16.61,260.4
"2009-10-01 00:08:30",1287663,22.65,298.7,1.812,0.829,16.05,106.4558,15.8,16.8,26.08,0,110.6,13.29,16.61,260.7
"2009-10-01 00:09:00",1287664,23.12,298.5,1.888,0.793,16.08,106.4552,15.8,16.8,26.22,0,110.6,13.29,16.61,260.5
"2009-10-01 00:09:30",1287665,21.2,298.2,1.917,0.625,16,106.4564,15.8,16.79,26.71,0,110.6,13.29,16.61,260.2
"2009-10-01 00:10:00",1287666,20.99,298.2,1.73,0.632,16.1,106.4591,15.81,16.8,26.68,0,110.6,13.29,16.62,260.2
"2009-10-01 00:10:30",1287667,22.46,300.1,2.611,1.084,16.46,106.4609,15.81,16.78,25.06,0,110.6,13.29,16.62,262.1
"2009-10-01 00:11:00",1287668,20.65,298.1,2.392,1.318,15.94,106.4622,15.82,16.78,26.45,0,110.6,13.29,16.62,260.1
"2009-10-01 00:11:30",1287669,22.67,297.9,1.407,0.342,16.29,106.4628,15.82,16.76,25.62,0,110.6,13.29,16.63,259.9
"2009-10-01 00:12:00",1287670,20.66,299.2,2.063,0.98,16.06,106.4521,15.79,16.76,26.19,0,110.6,13.3,16.60,261.2
"2009-10-01 00:12:30",1287671,21.37,299,1.179,0.507,16.1,106.4481,15.78,16.76,26.31,0,110.6,13.3,16.59,261.0
"2009-10-01 00:13:00",1287672,21.93,300,2.03,0.641,16.1,106.4421,15.77,16.76,26.44,0,110.6,13.3,16.57,262.0
"2009-10-01 00:13:30",1287673,22.41,298.5,1.587,1.284,16.12,106.4469,15.78,16.74,26.48,0,110.6,13.3,16.58,260.5
"2009-10-01 00:14:00",1287674,22.4,299.3,1.559,0.754,13.76,106.4466,15.78,16.74,25.84,0,110.6,13.29,16.58,261.3
"2009-10-01 00:14:30",1287675,21.03,299.5,1.655,1.177,16.07,106.4487,15.78,16.72,26.52,0,110.6,13.29,16.59,261.5
"2009-10-01 00:15:00",1287676,22.83,298.6,1.188,0.299,16.39,106.4502,15.79,16.72,25.92,0,110.6,13.29,16.59,260.6
"2009-10-01 00:15:30",1287677,21.62,300.1,0.968,0.56,16.53,106.4534,15.79,16.72,24.21,0,110.6,13.29,16.60,262.1
"2009-10-01 00:16:00",1287678,21.06,299.7,1.131,0.651,16.12,106.4559,15.8,16.72,25.55,0,110.6,13.3,16.61,261.7
"2009-10-01 00:16:30",1287679,21.19,299.2,1.643,0.606,16.12,106.4547,15.8,16.71,25.86,0,110.6,13.3,16.60,261.2
"2009-10-01 00:17:00",1287680,21.73,297.7,1.033,0.499,16.43,106.4568,15.8,16.72,24.77,0,110.6,13.3,16.61,259.7
"2009-10-01 00:17:30",1287681,21.47,298,1.081,0.308,16.53,106.4568,15.8,16.72,23.59,0,110.6,13.3,16.61,260.0
"2009-10-01 00:18:00",1287682,21.99,300,1.796,0.613,16.19,106.4571,15.8,16.71,24.45,0,110.6,13.3,16.61,262.0
"2009-10-01 00:18:30",1287683,21.55,298.3,1.523,0.828,16.2,106.4568,15.8,16.73,24.58,0,110.6,13.31,16.61,260.3
"2009-10-01 00:19:00",1287684,21.39,299.4,1.942,0.413,16.31,106.4571,15.8,16.73,24.4,0,110.6,13.31,16.61,261.4
"2009-10-01 00:19:30",1287685,19.55,301,2.078,0.839,16.05,106.4571,15.8,16.74,25.4,0,110.6,13.31,16.61,263.0
"2009-10-01 00:20:00",1287686,18.73,299.3,1.857,0.517,16.06,106.4571,15.8,16.76,25.88,0,110.6,13.31,16.61,261.3
"2009-10-01 00:20:30",1287687,19.98,302.2,1.806,0.675,16.12,106.4571,15.8,16.76,25.48,0,110.6,13.31,16.61,264.2
"2009-10-01 00:21:00",1287688,21.05,299.7,1.104,1.135,16.24,106.4571,15.8,16.76,25.13,0,110.6,13.31,16.61,261.7
"2009-10-01 00:21:30",1287689,21.61,299.5,2.097,0.467,16.15,106.4571,15.8,16.75,24.73,0,110.6,13.31,16.61,261.5
"2009-10-01 00:22:00",1287690,21.25,299.8,1.168,0.666,16.27,106.4571,15.8,16.76,24.45,0,110.6,13.31,16.61,261.8
"2009-10-01 00:22:30",1287691,20.55,301.9,2.132,1.207,16.11,106.4571,15.8,16.76,24.92,0,110.6,13.31,16.61,263.9
"2009-10-01 00:23:00",1287692,18.9,302.3,1.954,1.115,16.02,106.4565,15.8,16.75,25.69,0,110.6,13.31,16.61,264.3
"2009-10-01 00:23:30",1287693,20.34,299.4,2.487,0.946,16.1,106.4461,15.78,16.74,25.46,0,110.6,13.31,16.58,261.4
"2009-10-01 00:24:00",1287694,20.75,301.4,2.219,0.934,16.56,106.4323,15.74,16.73,23.83,0,110.6,13.31,16.55,263.4
"2009-10-01 00:24:30",1287695,18.97,300,2.213,0.615,16.05,106.4261,15.72,16.73,24.72,0,110.6,13.31,16.53,262.0
"2009-10-01 00:25:00",1287696,20.09,299.5,2.093,0.56,16.1,106.4232,15.72,16.72,25.08,0,110.6,13.31,16.52,261.5
"2009-10-01 00:25:30",1287697,21.15,300.8,2.717,0.936,16.14,106.4232,15.72,16.72,25.21,0,110.6,13.31,16.52,262.8
"2009-10-01 00:26:00",1287698,20.97,299.6,1.73,0.386,16.18,106.4232,15.72,16.7,24.47,0,110.6,13.31,16.52,261.6
"2009-10-01 00:26:30",1287699,20.81,298.5,2.578,0.861,16.09,106.4232,15.72,16.71,24.99,0,110.6,13.31,16.52,260.5
"2009-10-01 00:27:00",1287700,20.5,298.2,1.696,1.607,16.15,106.4207,15.71,16.69,24.9,0,110.6,13.31,16.52,260.2
"2009-10-01 00:27:30",1287701,21.76,299.1,0.939,0.297,16.33,106.4131,15.69,16.69,23.7,0,110.6,13.31,16.50,261.1
"2009-10-01 00:28:00",1287702,21.66,299.8,1.3,0.625,16.34,106.4128,15.69,16.67,23.81,0,110.6,13.31,16.50,261.8
"2009-10-01 00:28:30",1287703,21.23,301.7,1.739,0.297,16.18,106.4134,15.69,16.67,24.35,0,110.6,13.31,16.50,263.7
"2009-10-01 00:29:00",1287704,20.96,299.3,1.388,0.298,16.25,106.4131,15.69,16.67,24.13,0,110.6,13.31,16.50,261.3
"2009-10-01 00:29:30",1287705,21.79,299.3,1.558,0.605,16.35,106.4126,15.69,16.67,23.83,0,110.5,13.31,16.50,261.3
"2009-10-01 00:30:00",1287706,21.98,298.4,2.301,1.144,16.29,106.4111,15.69,16.66,23.77,0,110.5,13.31,16.49,260.4
"2009-10-01 00:30:30",1287707,20.96,301.7,2.419,1.377,16.16,106.4159,15.7,16.66,24.62,0,110.5,13.31,16.51,263.7
"2009-10-01 00:31:00",1287708,18.77,297.9,3.425,1.076,16,106.4182,15.7,16.66,25.28,0,110.5,13.31,16.51,259.9
"2009-10-01 00:31:30",1287709,21.72,298,1.944,0.963,16.34,106.4151,15.7,16.66,24.37,0,110.5,13.31,16.50,260.0
"2009-10-01 00:32:00",1287710,22.73,299.8,1.034,0.48,16.58,106.4176,15.7,16.67,23.15,0,110.5,13.31,16.51,261.8
"2009-10-01 00:32:30",1287711,21.4,300.4,1.177,0.889,16.26,106.4221,15.71,16.66,23.56,0,110.5,13.31,16.52,262.4
"2009-10-01 00:33:00",1287712,21.99,299.7,1.919,0.766,16.5,106.4232,15.72,16.66,23.22,0,110.5,13.32,16.52,261.7
"2009-10-01 00:33:30",1287713,21.94,301,1.361,0.977,16.48,106.4236,15.72,16.67,22.22,0,110.5,13.32,16.52,263.0
"2009-10-01 00:34:00",1287714,22.05,302.2,1.255,0.581,16.38,106.4239,15.72,16.68,23.05,0,110.5,13.32,16.53,264.2
"2009-10-01 00:34:30",1287715,21.82,302.7,2.053,0.92,16.19,106.4325,15.74,16.69,23.46,0,110.5,13.32,16.55,264.7
"2009-10-01 00:35:00",1287716,21.87,301.7,1.976,0.976,16.25,106.4429,15.77,16.71,23.85,0,110.5,13.32,16.57,263.7
"2009-10-01 00:35:30",1287717,21.09,301.3,2.696,1.712,16.18,106.4584,15.81,16.73,24.04,0,110.5,13.32,16.61,263.3
"2009-10-01 00:36:00",1287718,22.4,302.5,1.424,0.481,16.33,106.4649,15.82,16.74,23.52,0,110.5,13.32,16.63,264.5
"2009-10-01 00:36:30",1287719,22.09,303.9,1.338,0.586,16.24,106.4682,15.83,16.74,23.48,0,110.5,13.32,16.64,265.9
"2009-10-01 00:37:00",1287720,22.26,304.5,1.362,0.85,16.16,106.4694,15.84,16.75,23.82,0,110.5,13.32,16.64,266.5
"2009-10-01 00:37:30",1287721,21.78,304.1,0.857,0.399,16.26,106.4703,15.84,16.77,23.87,0,110.5,13.32,16.64,266.1
"2009-10-01 00:38:00",1287722,21.16,305.3,0.997,0.428,16.17,106.4727,15.84,16.76,23.7,0,110.5,13.32,16.65,267.3
"2009-10-01 00:38:30",1287723,20.96,305.6,1.366,0.756,16.07,106.4739,15.85,16.77,24.19,0,110.5,13.32,16.65,267.6
"2009-10-01 00:39:00",1287724,20.32,306.7,1.557,0.404,16.03,106.476,15.85,16.77,24.52,0,110.5,13.32,16.66,268.7
"2009-10-01 00:39:30",1287725,21.09,304.7,0.871,1.081,16.19,106.4811,15.87,16.77,24.45,0,110.5,13.32,16.67,266.7
"2009-10-01 00:40:00",1287726,21.23,305.9,1.26,0.589,16.12,106.4808,15.86,16.78,24.29,0,110.5,13.32,16.67,267.9
"2009-10-01 00:40:30",1287727,20.32,304.5,2.203,0.784,16.01,106.4697,15.84,16.77,24.79,0,110.5,13.32,16.64,266.5
"2009-10-01 00:41:00",1287728,20.91,305.2,1.205,0.448,16.03,106.455,15.8,16.77,24.84,0,110.5,13.32,16.61,267.2
"2009-10-01 00:41:30",1287729,22.1,305.4,0.94,0.354,16.22,106.4518,15.79,16.77,24.44,0,110.5,13.32,16.60,267.4
"2009-10-01 00:42:00",1287730,21.81,304.2,0.8,0.404,16.15,106.452,15.79,16.76,24.48,0,110.5,13.32,16.60,266.2
"2009-10-01 00:42:30",1287731,21.83,306.1,0.796,0.199,16.15,106.4529,15.79,16.75,24.21,0,110.5,13.32,16.60,268.1
"2009-10-01 00:43:00",1287732,21.69,306.8,0.661,0.26,16.19,106.4577,15.81,16.73,24.44,0,110.5,13.32,16.61,268.8
"2009-10-01 00:43:30",1287733,21.78,306.8,0.715,0.262,16.36,106.4558,15.8,16.73,23.77,0,110.5,13.32,16.61,268.8
"2009-10-01 00:44:00",1287734,21.64,307.3,0.514,0.207,16.25,106.4451,15.77,16.73,23.76,0,110.5,13.32,16.58,269.3
"2009-10-01 00:44:30",1287735,21.44,307.6,0.793,0.405,16.14,106.4485,15.78,16.73,23.94,0,110.5,13.32,16.59,269.6
"2009-10-01 00:45:00",1287736,21.09,308,0.858,0.354,16.18,106.4468,15.78,16.7,24.19,0,110.5,13.32,16.58,270.0
"2009-10-01 00:45:30",1287737,20.93,308.6,1.345,0.554,16.24,106.4381,15.76,16.72,23.9,0,110.5,13.32,16.56,270.6
"2009-10-01 00:46:00",1287738,19.88,308.2,1.716,0.56,16.01,106.4308,15.74,16.7,24.5,0,110.5,13.32,16.54,270.2
"2009-10-01 00:46:30",1287739,20.37,306.2,1.729,0.814,16.08,106.4254,15.72,16.7,24.79,0,110.5,13.32,16.53,268.2
"2009-10-01 00:47:00",1287740,20.37,307.1,2.084,0.715,16.23,106.4254,15.72,16.7,24.22,0,110.5,13.32,16.53,269.1
"2009-10-01 00:47:30",1287741,20.4,312.1,1.609,0.353,16.14,106.4254,15.72,16.68,24.48,0,110.5,13.32,16.53,274.1
"2009-10-01 00:48:00",1287742,19.67,313.5,0.872,0.26,16.13,106.4254,15.72,16.68,24.75,0,110.5,13.32,16.53,275.5
"2009-10-01 00:48:30",1287743,20.06,312.9,0.852,0.168,16.13,106.4251,15.72,16.69,24.87,0,110.5,13.32,16.53,274.9
"2009-10-01 00:49:00",1287744,19.43,314.5,0.385,0.296,16.13,106.4204,15.71,16.67,24.8,0,110.5,13.32,16.52,276.5
"2009-10-01 00:49:30",1287745,18.97,315.3,0.701,0.274,16.14,106.4054,15.67,16.66,24.91,0,110.5,13.32,16.48,277.3
"2009-10-01 00:50:00",1287746,18.73,313.4,1.219,0.196,16.12,106.3922,15.64,16.65,24.95,0,110.5,13.33,16.44,275.4
"2009-10-01 00:50:30",1287747,18.75,312.1,1.007,0.255,16.04,106.3916,15.64,16.64,25.09,0,110.5,13.33,16.44,274.1
"2009-10-01 00:51:00",1287748,19.19,313.3,0.976,0.377,16.1,106.3916,15.64,16.63,25.17,0,110.5,13.33,16.44,275.3
"2009-10-01 00:51:30",1287749,18.98,315.3,1.889,0.41,16.1,106.3888,15.63,16.62,24.78,0,110.5,13.33,16.44,277.3
"2009-10-01 00:52:00",1287750,19.57,314.1,1.411,0.464,16.04,106.3665,15.57,16.6,24.86,0,110.5,13.33,16.38,276.1
"2009-10-01 00:52:30",1287751,19.87,313.6,1.334,0.328,16,106.3578,15.55,16.58,24.8,0,110.5,13.33,16.36,275.6
"2009-10-01 00:53:00",1287752,18.92,313.6,0.825,0.655,16.02,106.3578,15.55,16.56,24.8,0,110.5,13.33,16.36,275.6
"2009-10-01 00:53:30",1287753,18.76,314.6,1.15,0.346,16.03,106.3558,15.54,16.55,24.75,0,110.5,13.33,16.35,276.6
"2009-10-01 00:54:00",1287754,19.03,315.6,1.392,0.544,16.12,106.3367,15.5,16.54,24.34,0,110.5,13.33,16.30,277.6
"2009-10-01 00:54:30",1287755,18.13,318,3.046,0.639,15.95,106.324,15.46,16.52,24.25,0,110.5,13.33,16.27,280.0
"2009-10-01 00:55:00",1287756,18,315,3.368,0.826,16.02,106.324,15.46,16.5,24.62,0,110.5,13.33,16.27,277.0
"2009-10-01 00:55:30",1287757,16.91,317.2,0.934,0.256,15.79,106.324,15.46,16.47,24.89,0,110.5,13.33,16.27,279.2
"2009-10-01 00:56:00",1287758,16.94,316.6,2.609,0.525,15.81,106.322,15.46,16.46,24.93,0,110.5,13.33,16.26,278.6
"2009-10-01 00:56:30",1287759,18.77,317,1.376,0.629,15.78,106.3045,15.41,16.45,25.14,0,110.5,13.33,16.22,279.0
"2009-10-01 00:57:00",1287760,19.29,316,2.117,0.546,15.71,106.2902,15.38,16.43,24.98,0,110.5,13.33,16.18,278.0
"2009-10-01 00:57:30",1287761,19.13,314.5,2.443,0.619,15.67,106.2902,15.38,16.42,24.92,0,110.5,13.33,16.18,276.5
"2009-10-01 00:58:00",1287762,18.72,313.8,2.229,0.777,15.63,106.2871,15.37,16.4,25.11,0,110.5,13.33,16.17,275.8
"2009-10-01 00:58:30",1287763,18.58,314.9,1.368,0.813,15.58,106.2592,15.3,16.37,25.13,0,110.5,13.33,16.10,276.9
"2009-10-01 00:59:00",1287764,17.69,319.3,3.342,0.82,15.49,106.2563,15.29,16.35,25.25,0,110.5,13.33,16.09,281.3
"2009-10-01 00:59:30",1287765,19.81,323.7,7.129,1.754,17.35,106.2462,15.26,16.47,25.72,0,110.5,13.29,16.07,285.7
"2009-10-01 01:00:00",1287766,18.79,326.3,7.027,1.315,18.55,106.2245,15.21,16.55,26.08,0,110.5,13.29,16.01,288.3
"2009-10-01 01:00:30",1287767,18.93,330.6,6.587,0.995,18.68,106.2225,15.2,16.52,26.26,0,110.5,13.29,16.01,292.6
"2009-10-01 01:01:00",1287768,17.73,331.7,4.465,1.258,18.64,106.2056,15.16,16.56,26.8,0,110.5,13.29,15.96,293.7
"2009-10-01 01:01:30",1287769,18.66,323.1,6.533,1.577,15.45,106.1887,15.12,16.37,26.91,0,110.5,13.28,15.92,285.1
"2009-10-01 01:02:00",1287770,18.2,314.8,2.252,0.945,13.59,106.1797,15.09,16.18,26.77,0,110.5,13.32,15.90,276.8
"2009-10-01 01:02:30",1287771,17.9,315.7,2.287,0.884,13.66,106.1549,15.03,16.14,27.17,0,110.5,13.32,15.83,277.7
"2009-10-01 01:03:00",1287772,18.92,318,4.223,1.484,14.79,106.1377,14.99,16.1,27.57,0,110.5,13.29,15.79,280.0
"2009-10-01 01:03:30",1287773,20.26,319.3,6.801,1.145,16.54,106.1208,14.94,16.16,27.74,0,110.5,13.28,15.75,281.3
"2009-10-01 01:04:00",1287774,20.03,319,6.447,2.007,17.49,106.0954,14.88,16.26,27.92,0,110.4,13.28,15.68,281.0
"2009-10-01 01:04:30",1287775,21.49,325.7,5.186,0.983,18.47,106.0819,14.84,16.27,28.08,0,110.5,13.28,15.65,287.7
"2009-10-01 01:05:00",1287776,21.7,323.2,6.493,1.204,17.71,106.0546,14.77,16.18,28.04,0,110.5,13.28,15.58,285.2
"2009-10-01 01:05:30",1287777,21.15,322.9,6.052,1.624,16.74,106.0369,14.73,16.1,28.05,0,110.5,13.28,15.53,284.9
"2009-10-01 01:06:00",1287778,20.66,319.4,6.149,1.772,14.97,106.0181,14.68,15.95,27.72,0,110.5,13.28,15.48,281.4
"2009-10-01 01:06:30",1287779,20.46,312.3,1.464,0.384,13.53,105.9912,14.61,15.8,27.92,0,110.5,13.32,15.41,274.3
"2009-10-01 01:07:00",1287780,22.93,324.1,6.476,1.286,17.91,105.9684,14.55,15.94,28.14,0,110.5,13.29,15.35,286.1
"2009-10-01 01:07:30",1287781,22.77,322.5,5.987,1.292,17.87,105.954,14.51,15.93,28.11,0,110.5,13.29,15.32,284.5
"2009-10-01 01:08:00",1287782,21.57,320,6.554,1.633,16.93,105.9304,14.45,15.84,28.27,0,110.5,13.29,15.26,282.0
"2009-10-01 01:08:30",1287783,21.62,320.3,7.113,1.452,17.56,105.9122,14.41,15.8,28.11,0,110.5,13.29,15.21,282.3
"2009-10-01 01:09:00",1287784,21.91,319.4,6.384,1.298,17.33,105.899,14.37,15.78,27.83,0,110.4,13.29,15.18,281.4
"2009-10-01 01:09:30",1287785,20.76,311.4,5.057,1.037,14.6,105.8789,14.32,15.5,27.82,0,110.4,13.29,15.12,273.4
"2009-10-01 01:10:00",1287786,18.53,309.2,2.33,0.83,13.29,105.8726,14.31,15.45,28.38,0,110.5,13.33,15.11,271.2
"2009-10-01 01:10:30",1287787,20.56,310.5,6.195,1.17,14.65,105.856,14.26,15.42,28.24,0,110.4,13.29,15.07,272.5
"2009-10-01 01:11:00",1287788,21.92,316.2,6.242,1.287,17.55,105.8429,14.23,15.6,28.49,0,110.4,13.3,15.03,278.2
"2009-10-01 01:11:30",1287789,22.4,314.7,6.412,1.329,17.51,105.8413,14.23,15.59,28.51,0,110.4,13.3,15.03,276.7
"2009-10-01 01:12:00",1287790,23.01,312.5,6.69,1.353,16,105.8197,14.17,15.36,28.23,0,110.4,13.3,14.97,274.5
"2009-10-01 01:12:30",1287791,23.3,316.7,6.263,1.405,17.45,105.8115,14.15,15.51,28.42,0,110.4,13.3,14.95,278.7
"2009-10-01 01:13:00",1287792,22.51,316.4,5.134,1.602,16.87,105.8142,14.16,15.41,28.73,0,110.4,13.3,14.96,278.4
"2009-10-01 01:13:30",1287793,22.35,308.9,6.248,1.475,15.15,105.794,14.11,15.29,28.51,0,110.4,13.3,14.91,270.9
"2009-10-01 01:14:00",1287794,21.72,304,3.119,0.737,13.54,105.7837,14.08,15.2,28.46,0,110.4,13.29,14.88,266.0
"2009-10-01 01:14:30",1287795,23.34,311.9,6.422,1.438,17.31,105.7848,14.08,15.36,28.33,0,110.4,13.3,14.88,273.9
"2009-10-01 01:15:00",1287796,23.21,310.1,6.397,1.316,17.03,105.7823,14.08,15.27,28.35,0,110.4,13.3,14.88,272.1
"2009-10-01 01:15:30",1287797,22.39,307.9,5.871,1.163,15.29,105.7665,14.03,15.24,28.76,0,110.4,13.3,14.84,269.9
"2009-10-01 01:16:00",1287798,22.98,311.9,6.937,1.295,16.81,105.7507,13.99,15.26,28.85,0,110.4,13.3,14.80,273.9
"2009-10-01 01:16:30",1287799,22.95,313.6,6.112,1.395,17.29,105.751,14,15.31,28.93,0,110.4,13.3,14.80,275.6
"2009-10-01 01:17:00",1287800,22.78,312.3,6.751,1.289,16.47,105.751,14,15.25,28.8,0,110.4,13.3,14.80,274.3
"2009-10-01 01:17:30",1287801,21.76,309,5.63,1.421,14.65,105.7434,13.98,15.08,28.7,0,110.4,13.29,14.78,271.0
"2009-10-01 01:18:00",1287802,21.53,311.6,7.246,1.392,15.5,105.7259,13.93,15.09,28.65,0,110.4,13.29,14.73,273.6
"2009-10-01 01:18:30",1287803,20.2,304.6,0.65,0.18,13.76,105.7186,13.91,15.15,28.55,0,110.4,13.32,14.71,266.6
"2009-10-01 01:19:00",1287804,20.9,309.3,5.807,1.381,15.83,105.7172,13.91,15,28.24,0,110.5,13.29,14.71,271.3
"2009-10-01 01:19:30",1287805,21.12,311.3,6.702,1.256,16.08,105.7172,13.91,15.07,28.06,0,110.4,13.29,14.71,273.3
"2009-10-01 01:20:00",1287806,21.06,313.2,7.613,1.081,16.79,105.7172,13.91,15.16,28.44,0,110.4,13.29,14.71,275.2
"2009-10-01 01:20:30",1287807,20.71,317.3,5.348,1.211,17.23,105.7144,13.9,15.17,28.86,0,110.4,13.29,14.70,279.3
"2009-10-01 01:21:00",1287808,20.25,318.1,5.61,1.151,17.71,105.6952,13.85,15.19,29.32,0,110.4,13.29,14.65,280.1
"2009-10-01 01:21:30",1287809,18.81,312.4,7.421,1.577,15.39,105.6836,13.82,15.03,29.32,0,110.4,13.29,14.62,274.4
"2009-10-01 01:22:00",1287810,18.86,308.6,5.452,1.307,14.05,105.6833,13.82,15.02,29.45,0,110.4,13.29,14.62,270.6
"2009-10-01 01:22:30",1287811,20.56,311.6,7.136,1.685,15.21,105.6814,13.82,14.99,29.25,0,110.4,13.29,14.62,273.6
"2009-10-01 01:23:00",1287812,19.69,309,5.389,1.908,14.88,105.6619,13.77,14.95,29.38,0,110.4,13.3,14.57,271.0
"2009-10-01 01:23:30",1287813,19.88,311.2,7.455,1.96,15.26,105.6495,13.74,14.9,29.49,0,110.4,13.3,14.54,273.2
"2009-10-01 01:24:00",1287814,20.44,318.9,5.177,1.09,17.93,105.6473,13.73,15.01,29.67,0,110.4,13.3,14.53,280.9
"2009-10-01 01:24:30",1287815,19.31,321.1,3.749,1.173,17.72,105.6196,13.66,15.08,29.9,0,110.4,13.3,14.46,283.1
"2009-10-01 01:25:00",1287816,19,319.6,7.178,0.943,16.72,105.6157,13.65,14.92,29.88,0,110.4,13.3,14.45,281.6
"2009-10-01 01:25:30",1287817,17.84,306.7,2.361,0.77,12.86,105.6123,13.64,14.7,29.63,0,110.4,13.3,14.44,268.7
"2009-10-01 01:26:00",1287818,21.03,310.5,6.809,1.931,15.07,105.5886,13.58,14.81,29.76,0,110.4,13.3,14.38,272.5
"2009-10-01 01:26:30",1287819,19.16,307.6,8.71,1.927,14.21,105.5819,13.56,14.76,29.78,0,110.4,13.3,14.36,269.6
"2009-10-01 01:27:00",1287820,21.42,313,7.199,1.28,15.69,105.5672,13.52,14.7,29.61,0,110.4,13.3,14.32,275.0
"2009-10-01 01:27:30",1287821,21.26,320.3,4.901,0.993,17.86,105.5483,13.48,14.92,29.83,0,110.4,13.3,14.28,282.3
"2009-10-01 01:28:00",1287822,20.89,317.2,5.309,1.151,17.96,105.5475,13.47,14.89,29.95,0,110.4,13.3,14.27,279.2
"2009-10-01 01:28:30",1287823,21.58,317.7,6.02,1.588,17.04,105.5322,13.43,14.83,29.88,0,110.4,13.3,14.23,279.7
"2009-10-01 01:29:00",1287824,19.34,305.6,1.858,0.799,12.75,105.5142,13.39,14.5,29.66,0,110.4,13.33,14.19,267.6
"2009-10-01 01:29:30",1287825,20.39,307.8,4.371,1.008,13.66,105.5142,13.39,14.58,29.56,0,110.4,13.3,14.19,269.8
"2009-10-01 01:30:00",1287826,20.58,311.7,6.453,1.302,15.04,105.5035,13.36,14.48,29.51,0,110.4,13.3,14.16,273.7
"2009-10-01 01:30:30",1287827,21.24,316.4,6.194,1.174,16.83,105.4807,13.3,14.62,29.78,0,110.4,13.3,14.10,278.4
"2009-10-01 01:31:00",1287828,22.4,320.1,3.93,0.96,18.03,105.4804,13.3,14.76,29.91,0,110.4,13.3,14.10,282.1
"2009-10-01 01:31:30",1287829,22.68,318.3,4.154,0.953,17.82,105.4801,13.3,14.7,30,0,110.4,13.3,14.10,280.3
"2009-10-01 01:32:00",1287830,21.05,318.2,3.832,0.897,17.24,105.4629,13.26,14.67,30.07,0,110.4,13.3,14.06,280.2
"2009-10-01 01:32:30",1287831,20.69,318.8,4.484,0.755,17.15,105.4471,13.22,14.65,30.21,0,110.4,13.3,14.02,280.8
"2009-10-01 01:33:00",1287832,20.59,317.4,4.062,1.046,16.94,105.4474,13.22,14.65,30.26,0,110.4,13.3,14.02,279.4
"2009-10-01 01:33:30",1287833,20.88,320.1,4.4,1.057,16.79,105.4475,13.22,14.61,30.29,0,110.4,13.3,14.02,282.1
"2009-10-01 01:34:00",1287834,20.95,319.3,4.59,1.353,16.5,105.4266,13.16,14.57,30.36,0,110.4,13.29,13.96,281.3
"2009-10-01 01:34:30",1287835,21.24,319.8,4.894,1.175,16.46,105.4181,13.14,14.58,30.49,0,110.4,13.29,13.94,281.8
"2009-10-01 01:35:00",1287836,20.19,321.1,4.651,1.25,16.44,105.4172,13.14,14.55,30.58,0,110.4,13.29,13.94,283.1
"2009-10-01 01:35:30",1287837,19.02,321.2,4.766,1.827,16.34,105.4211,13.15,14.5,30.73,0,110.4,13.29,13.95,283.2
"2009-10-01 01:36:00",1287838,18.97,321.2,5.063,2.008,16.29,105.4003,13.1,14.49,30.61,0,110.4,13.29,13.89,283.2
"2009-10-01 01:36:30",1287839,19.52,322.9,2.895,0.948,16.04,105.3875,13.06,14.49,30.83,0,110.4,13.29,13.86,284.9
"2009-10-01 01:37:00",1287840,19.65,311.1,7.671,1.203,13.17,105.389,13.07,14.13,30.44,0,110.4,13.29,13.87,273.1
"2009-10-01 01:37:30",1287841,20.72,305,2.774,0.892,12.24,105.3731,13.03,14.11,30.08,0,110.4,13.33,13.83,267.0
"2009-10-01 01:38:00",1287842,20.78,308.7,7.371,0.717,14.46,105.3563,12.98,14.21,30.12,0,110.4,13.29,13.78,270.7
"2009-10-01 01:38:30",1287843,20.11,310.3,6.45,1.013,15.07,105.3572,12.99,14.18,30.33,0,110.4,13.29,13.78,272.3
"2009-10-01 01:39:00",1287844,20.83,317.1,3.986,0.762,17.91,105.3596,12.99,14.37,30.7,0,110.4,13.3,13.79,279.1
"2009-10-01 01:39:30",1287845,21.91,317.5,3.824,1.431,17.52,105.3532,12.98,14.36,30.63,0,110.4,13.3,13.77,279.5
"2009-10-01 01:40:00",1287846,23.62,319.4,3.261,1.016,17.12,105.3313,12.92,14.32,30.21,0,110.4,13.3,13.72,281.4
"2009-10-01 01:40:30",1287847,24.78,317,3.14,0.845,17.19,105.332,12.92,14.29,29.97,0,110.4,13.3,13.72,279.0
"2009-10-01 01:41:00",1287848,23.31,310.7,6.511,1.383,14.68,105.3314,12.92,14.05,29.78,0,110.4,13.3,13.72,272.7
"2009-10-01 01:41:30",1287849,23.23,311.7,6.126,1.272,15.13,105.3356,12.93,14.17,30.16,0,110.4,13.3,13.73,273.7
"2009-10-01 01:42:00",1287850,20.45,306.3,5.895,1.59,13.9,105.3365,12.93,14.07,30.28,0,110.4,13.3,13.73,268.3
"2009-10-01 01:42:30",1287851,20.98,306.4,4.909,1.369,13.99,105.3377,12.94,14.06,30.41,0,110.4,13.3,13.73,268.4
"2009-10-01 01:43:00",1287852,20.64,309.7,7.676,1.511,16.11,105.3395,12.94,14.16,30.67,0,110.4,13.3,13.74,271.7
"2009-10-01 01:43:30",1287853,21.35,314.1,5.881,1.55,16.54,105.3293,12.92,14.18,30.86,0,110.4,13.3,13.71,276.1
"2009-10-01 01:44:00",1287854,21.78,309.6,8.41,1.386,15.46,105.3148,12.88,14.08,30.59,0,110.4,13.31,13.68,271.6
"2009-10-01 01:44:30",1287855,21.97,313.6,5.925,1.524,15.99,105.3118,12.87,14.11,30.71,0,110.4,13.31,13.67,275.6
"2009-10-01 01:45:00",1287856,21.75,312.2,6.495,1.294,15.59,105.3115,12.87,14.12,30.45,0,110.4,13.3,13.67,274.2
"2009-10-01 01:45:30",1287857,19.79,312,6.064,2.398,14.12,105.3127,12.87,13.87,30.41,0,110.4,13.31,13.67,274.0
"2009-10-01 01:46:00",1287858,20.56,316.5,7.361,1.621,16.02,105.3121,12.87,14.12,30.59,0,110.4,13.31,13.67,278.5
"2009-10-01 01:46:30",1287859,21.34,317,5.33,1.341,16.18,105.3127,12.87,14.09,30.72,0,110.4,13.31,13.67,279.0
"2009-10-01 01:47:00",1287860,21.48,319,6.674,1.09,16.69,105.3056,12.85,14.06,30.68,0,110.4,13.31,13.65,281.0